Terminal Aerodrome Forecast
Issued by NWS

Home | Current Version | Previous Version | Text Only | Print | Product List | Glossary On
Versions: 1 2 3 4 5 6 7 8 9 10 11 12
000
FTUS46 KMTR 060500
TAFSNS
TAF
KSNS 060527Z 0606/0706 VRB03KT P6SM SKC
     FM061200 10010KT P6SM SKC
     FM062200 28010KT P6SM SKC
     FM070300 30004KT P6SM SKC=

USA.gov is the U.S. government's official web portal to all federal, state and local government web resources and services.